sat.trackr.live / text

‹ back to catalog

STARLINK-4408

NORAD 53206 · 2022-084T

PAYLOAD ACTIVE UNKNOWN

§ Identity

Operator
Country
US
Launch date
2022-07-22
Launch site
AFWTR
Launch vehicle
Mass (kg)
RCS (m²)

Purposes: comms

External: N2YO · Heavens-Above · Gunter

§ Orbital elements

Epoch: 2026-05-25T03:32:48.427008Z

Period
95.64 min
Inclination
97.4463°
Eccentricity
0.0002333
Mean motion
15.05659227 rev/d
Perigee alt
547.9 km
Apogee alt
551.1 km
Semi-major
6,927.6 km
B*
-1.4805e-4
RAAN
206.2016°
Arg perigee
130.0229°
Mean anomaly
230.1203°
Rev number
21,088

§ Raw data

STARLINK-44081 53206U 22084T   26145.14778272 -.00002195  00000+0 -14805-3 0  99972 53206  97.4463 206.2016 0002333 130.0229 230.1203 15.05659227210888

JSON: /api/v1/satellites/53206 · /tle

For live sub-satellite position, see the globe view (requires WebGL).

§ Visibility from observer

Set your observer location to see the next 7 days of passes ≥ 10°. The values pass through the URL so the page stays shareable.

No JS? Fill the form by hand. The geolocation button needs JavaScript.